EW3531 Weather Reports


time (UTC)temp
C
wind
direction
speed
KPH
gust
KPH
rain 1hr
cm
rain 24hr
cm
rain mn
cm
humidity
%
barometer
mb
20260902023038 20 189 4.8 11.3 0.00 0.00 0.00 78 1013.0
20260902021546 20 205 3.2 16.1 0.00 0.00 0.00 76 1013.1
20260902020033 21 140 6.4 17.7 0.00 0.00 0.00 75 1013.1
20260902014539 21 209 6.4 16.1 0.00 0.00 0.00 74 1013.0
20260902013032 21 198 8.0 24.1 0.00 0.00 0.00 74 1013.1
20260902011531 21 222 8.0 20.9 0.00 0.00 0.00 74 1013.1
20260902010032 21 187 8.0 19.3 0.00 0.00 0.00 74 1013.1
20260902004530 21 176 8.0 19.3 0.00 0.00 0.00 74 1013.1
20260902003031 22 180 8.0 17.7 0.00 0.00 0.00 73 1013.3
20260902001527 22 194 6.4 16.1 0.00 0.00 0.00 71 1013.3
20260902000023 22 204 9.7 17.7 0.00 0.00 0.00 69 1013.4
20260901234522 22 198 8.0 16.1 0.00 0.00 0.00 68 1013.5
20260901233020 22 211 9.7 16.1 0.00 0.00 0.00 69 1013.7
20260901231521 22 157 11.3 22.5 0.00 0.00 0.00 71 1013.9
20260901230018 22 184 9.7 25.7 0.00 0.00 0.00 71 1014.0
20260901224521 22 214 14.5 24.1 0.00 0.00 0.00 71 1014.2
20260901223014 22 176 9.7 19.3 0.00 0.00 0.00 72 1014.2
20260901221513 22 202 9.7 19.3 0.00 0.00 0.00 73 1014.4
20260901220017 22 212 11.3 24.1 0.00 0.00 0.00 72 1014.5
20260901214510 22 216 11.3 20.9 0.00 0.00 0.00 70 1014.7
20260901213010 22 204 11.3 20.9 0.00 0.00 0.00 70 1014.7
20260901211508 22 163 9.7 19.3 0.00 0.00 0.00 69 1014.8
20260901210011 22 173 9.7 20.9 0.00 0.00 0.00 69 1014.9
20260901204506 22 183 11.3 17.7 0.00 0.00 0.00 69 1014.9
20260901203007 22 177 4.8 14.5 0.00 0.00 0.00 69 1015.0
20260901201504 22 178 6.4 17.7 0.00 0.00 0.00 69 1015.1
20260901200003 22 172 6.4 14.5 0.00 0.00 0.00 69 1015.3
20260901194504 22 146 6.4 14.5 0.00 0.00 0.00 69 1015.5
20260901193126 22 186 8.0 17.7 0.00 0.00 0.00 70 1015.6
20260901191600 22 184 9.7 16.1 0.00 0.00 0.00 69 1015.7
20260901190110 22 191 4.8 14.5 0.00 0.00 0.00 70 1015.7
20260901190002 22 222 4.8 14.5 0.00 0.00 0.00 69 1015.7
20260901184559 22 154 8.0 16.1 0.00 0.00 0.00 70 1015.7
20260901183057 22 172 9.7 16.1 0.00 0.00 0.00 70 1015.8
20260901181602 22 157 6.4 16.1 0.00 0.00 0.00 71 1015.7
20260901180058 22 169 6.4 12.9 0.00 0.00 0.00 70 1015.6
20260901174554 22 190 3.2 12.9 0.00 0.00 0.00 71 1015.5
20260901173051 22 143 6.4 14.5 0.00 0.00 0.00 72 1015.4
20260901171605 21 250 1.6 11.3 0.00 0.00 0.00 73 1015.3
20260901170049 21 119 3.2 11.3 0.00 0.00 0.00 75 1015.3
20260901164545 20 131 3.2 11.3 0.00 0.00 0.00 78 1015.3
20260901163039 19 121 3.2 8.0 0.00 0.00 0.00 81 1015.2
20260901161539 18 261 1.6 9.7 0.00 0.00 0.00 84 1015.3
20260901160035 18 269 3.2 6.4 0.00 0.00 0.00 87 1015.3
20260901154528 17 130 0.0 4.8 0.00 0.00 0.00 89 1015.3
20260901153026 17 334 0.0 8.0 0.00 0.00 0.00 90 1015.2
20260901151522 17 49 3.2 8.0 0.00 0.00 0.00 91 1015.0
20260901150019 16 49 3.2 6.4 0.00 0.00 0.00 92 1014.9
20260901144516 16 360 1.6 4.8 0.00 0.00 0.00 93 1014.7
20260901143016 15 5 0.0 0.0 0.00 0.00 0.00 92 1014.7
20260901141530 15 5 0.0 0.0 0.00 0.00 0.00 92 1014.6
20260901140012 15 5 0.0 0.0 0.00 0.00 0.00 91 1014.5
20260901134512 14 5 0.0 0.0 0.00 0.00 0.00 91 1014.4
20260901133009 14 5 0.0 0.0 0.00 0.00 0.00 91 1014.2
20260901131508 15 5 0.0 0.0 0.00 0.00 0.00 91 1014.0
20260901130006 15 5 0.0 0.0 0.00 0.00 0.00 90 1013.9
20260901124506 15 5 0.0 0.0 0.00 0.00 0.00 90 1013.8
20260901123007 15 18 0.0 0.0 0.00 0.00 0.00 90 1013.8
20260901121502 15 32 0.0 0.0 0.00 0.00 0.00 90 1013.9
20260901120003 15 355 0.0 0.0 0.00 0.00 0.00 90 1013.9
20260901114602 15 333 0.0 0.0 0.00 0.00 0.00 90 1013.9
20260901113100 16 241 0.0 0.0 0.00 0.00 0.00 90 1013.9
20260901111559 16 241 0.0 0.0 0.00 0.00 0.00 90 1013.8
20260901110058 16 241 0.0 0.0 0.00 0.00 0.00 91 1014.0
20260901104557 16 241 0.0 0.0 0.00 0.00 0.00 91 1014.1
20260901103104 16 246 0.0 0.0 0.00 0.00 0.00 90 1013.9
20260901101555 15 329 0.0 0.0 0.00 0.00 0.00 90 1013.9
20260901100056 15 329 0.0 0.0 0.00 0.00 0.00 90 1013.9
20260901094553 15 355 0.0 0.0 0.00 0.00 0.00 90 1013.6
20260901093052 15 360 0.0 0.0 0.00 0.00 0.00 90 1013.7
20260901091555 15 360 0.0 0.0 0.00 0.00 0.00 89 1013.8
20260901090049 15 360 0.0 0.0 0.00 0.00 0.00 89 1013.9
20260901084548 15 341 0.0 0.0 0.00 0.00 0.00 89 1014.1
20260901083047 15 341 0.0 0.0 0.00 0.00 0.00 88 1014.2
20260901081547 15 341 0.0 0.0 0.00 0.00 0.00 88 1013.9
20260901080047 15 341 0.0 0.0 0.00 0.00 0.00 88 1014.0
20260901074550 16 341 0.0 0.0 0.00 0.00 0.00 87 1013.9
20260901073040 16 341 0.0 0.0 0.00 0.00 0.00 87 1014.0
20260901071538 16 341 0.0 0.0 0.00 0.00 0.00 87 1013.9
20260901070038 16 341 0.0 0.0 0.00 0.00 0.00 87 1014.0
20260901064539 16 333 0.0 0.0 0.00 0.00 0.00 87 1013.6
20260901063041 16 360 0.0 1.6 0.00 0.00 0.00 87 1013.6
20260901061535 16 360 0.0 3.2 0.00 0.00 0.00 86 1013.6
20260901060033 16 355 0.0 3.2 0.00 0.00 0.00 86 1013.5
20260901054536 16 355 0.0 1.6 0.00 0.00 0.00 86 1013.4
20260901053034 16 306 0.0 3.2 0.00 0.00 0.00 85 1013.5
20260901051535 17 320 0.0 3.2 0.00 0.00 0.00 85 1013.3
20260901050032 17 5 0.0 3.2 0.00 0.00 0.00 85 1013.1
20260901044532 17 5 0.0 1.6 0.00 0.00 0.00 85 1013.0
20260901043031 17 242 0.0 4.8 0.00 0.00 0.00 86 1013.0
20260901041534 17 250 0.0 4.8 0.00 0.00 0.00 85 1013.0
20260901040030 18 195 6.4 14.5 0.00 0.00 0.00 85 1012.9
20260901034531 18 192 6.4 16.1 0.00 0.00 0.00 85 1012.7
20260901033028 18 205 4.8 12.9 0.00 0.00 0.00 85 1012.6
20260901031531 18 142 4.8 12.9 0.00 0.00 0.00 84 1012.3
20260901030027 18 171 4.8 14.5 0.00 0.00 0.00 83 1012.2
20260901024528 18 193 4.8 16.1 0.00 0.00 0.00 82 1012.2